Voltar ao catálogo

COSMOS 252 DEB

AtivoUNKNOWN
NORAD 3788·DEBRIS·🇷🇺 Russia

Lançado Nov 1, 1968 de Baikonur Cosmodrome

Loading…

Próximas Passagens (próximas 24 horas)

TLE

AtualizadoSource: Space-Track

Época: Sep 14, 2026, 12:52 UTC

1 03788U 68097BA  26257.53654203 -.00000040  00000-0  21237-3 0  9999
2 03788  61.8729 290.1156 0581349  40.8014  33.1157 11.88459683511046

Acompanhe COSMOS 252 DEB em tempo real com AllMySat

Download on the App Store